Location: Unspecified
(43.3830°N, 0.0000°E)
Time: 09:25:35
(UTC+00:00)

N. Korean satellite - Pass Details

Date: 28 November 2020
Orbit: 453 x 502 km, 97.2° (Epoch: 16 January)

Event Time Altitude Azimuth Distance (km) Brightness Sun altitude
Rises 05:28:40 0° 13° (NNE) 2,551 10.2 -17.9°
Reaches altitude 10° 05:30:44 10° 14° (NNE) 1,675 9.3 -17.5°
Maximum altitude 05:34:20 80° 102° (ESE) 502 6.6 -16.9°
Drops below altitude 10° 05:37:58 10° 190° (S) 1,686 9.4 -16.3°
Sets 05:40:03 0° 191° (S) 2,569 10.3 -15.9°
